Location: Orange Harbor Mobile Home Park
(26.6923°N, 81.7937°W)
Time: 08:21:13
(UTC+00:00)

Exosat Rocket - Pass Details

Date: 19 September 2020
Orbit: 760 x 2514 km, 72.3° (Epoch: 30 October)

Event Time Altitude Azimuth Distance (km) Brightness Sun altitude
Rises 00:48:09 0° 187° (S) 4,297 7.3 -18.7°
Reaches altitude 10° 00:51:20 10° 184° (S) 3,084 6.5 -19.4°
Maximum altitude 00:58:05 59° 106° (ESE) 1,066 3.8 -20.9°
Drops below altitude 10° 01:03:15 10° 28° (NNE) 2,390 5.9 -22.0°
Sets 01:05:27 0° 24° (NNE) 3,259 6.7 -22.5°
